Salem, OR

3:26 PM PDT on September 23, 2017 (GMT -0700)
McNary

Weather History for KSLE - October, 2014

Change the Weather History Date:

Wednesday, October 22, 2014

  Actual Average Record
Temperature  
Mean Temperature 57 °F 51 °F  
Max Temperature 60 °F 61 °F 83 °F (1929)
Min Temperature 54 °F 41 °F 28 °F (1928)
Degree Days  
Heating Degree Days 8 14  
Month to date heating degree days 91 231  
Since 1 July heating degree days 123 396  
Cooling Degree Days 0 0  
Month to date cooling degree days 14 0  
Year to date cooling degree days 605 289  
Growing Degree Days 8 (Base 50)    
Moisture  
Dew Point 53 °F    
Average Humidity 85    
Maximum Humidity 93    
Minimum Humidity 77    
Precipitation  
Precipitation 1.22 in 0.12 in 1.55 in (1931)
Month to date precipitation 3.04 1.80  
Year to date precipitation 27.06 25.08  
Sea Level Pressure  
Sea Level Pressure 29.76 in    
Wind  
Wind Speed 10 mph (South)    
Max Wind Speed 21 mph    
Max Gust Speed 26 mph    
Visibility 7 miles    
Events Rain    
T = Trace of Precipitation, MM = Missing Value Source: NWS Daily Summary

Daily Weather History Graph

Daily Weather History Graph

Search for Another Location

Airport or City:

Trip Planner

Search our weather history database for the weather conditions in past years. The results will help you decide how hot, cold, wet, or windy it might be!

Date:

Astronomy

Oct. 22, 2014 Rise Set
Actual Time 7:36 AM PDT 6:15 PM PDT
Civil Twilight 7:07 AM PDT 6:45 PM PDT
Nautical Twilight 6:32 AM PDT 7:19 PM PDT
Astronomical Twilight 5:58 AM PDT 7:53 PM PDT
Moon 6:20 AM PDT (10/22) 5:47 PM PDT (10/22)
Length of Visible Light 11h 38m
Length of Day
10h 38m
Waning Crescent, 1% of the Moon is Illuminated
Oct 22
Waning Crescent
Oct 23
New
Oct 30
First Quarter
Nov 6
Full
Nov 14
Last Quarter

Hourly Weather History & Observations

Time (PDT) Temp. Dew Point Humidity Pressure Visibility Wind Dir Wind Speed Gust Speed Precip Events Conditions
12:56 AM 55.9 °F 50.0 °F 80% 29.82 in 10.0 mi South 15.0 mph - 0.03 in Rain Light Rain
1:56 AM 55.9 °F 50.0 °F 80% 29.82 in 10.0 mi South 12.7 mph - 0.02 in   Overcast
2:56 AM 57.0 °F 50.0 °F 77% 29.81 in 10.0 mi South 13.8 mph - 0.00 in   Overcast
3:56 AM 57.0 °F 50.0 °F 77% 29.80 in 10.0 mi South 15.0 mph - 0.00 in Rain Light Rain
4:56 AM 57.9 °F 48.9 °F 72% 29.80 in 10.0 mi South 12.7 mph 21.9 mph 0.00 in   Overcast
5:56 AM 57.0 °F 50.0 °F 77% 29.79 in 10.0 mi South 15.0 mph 23.0 mph 0.00 in Rain Light Rain
6:56 AM 55.9 °F 52.0 °F 87% 29.78 in 9.0 mi SSE 13.8 mph - 0.10 in Rain Light Rain
7:56 AM 55.0 °F 52.0 °F 89% 29.79 in 6.0 mi SSW 9.2 mph - 0.08 in Rain Light Rain
8:56 AM 55.9 °F 52.0 °F 87% 29.80 in 9.0 mi South 9.2 mph - 0.09 in Rain Light Rain
9:56 AM 57.0 °F 53.1 °F 87% 29.78 in 10.0 mi South 10.4 mph - 0.02 in Rain Light Rain
10:56 AM 57.9 °F 54.0 °F 87% 29.77 in 10.0 mi South 11.5 mph - 0.03 in Rain Light Rain
11:56 AM 57.9 °F 55.0 °F 90% 29.75 in 8.0 mi South 10.4 mph - 0.04 in Rain Light Rain
12:56 PM 59.0 °F 55.0 °F 87% 29.73 in 10.0 mi South 11.5 mph - 0.01 in Rain Light Rain
1:56 PM 59.0 °F 55.9 °F 90% 29.72 in 6.0 mi South 4.6 mph - 0.03 in Rain Light Rain
2:56 PM 60.1 °F 55.9 °F 86% 29.71 in 4.0 mi SSW 8.1 mph - 0.10 in Rain Rain
3:07 PM 59.0 °F 55.9 °F 90% 29.70 in 2.5 mi South 5.8 mph - 0.05 in Rain Rain
3:16 PM 59.0 °F 55.9 °F 90% 29.70 in 5.0 mi South 6.9 mph - 0.07 in Rain Light Rain
3:33 PM 59.0 °F 55.9 °F 90% 29.71 in 6.0 mi South 9.2 mph - 0.10 in Rain Rain
3:41 PM 59.0 °F 55.9 °F 90% 29.71 in 2.5 mi South 12.7 mph - 0.12 in Rain Rain
3:56 PM 59.0 °F 55.9 °F 90% 29.72 in 2.5 mi SSW 12.7 mph - 0.17 in Rain Rain
4:48 PM 57.9 °F 55.0 °F 90% 29.74 in 5.0 mi SSW 11.5 mph - 0.20 in Rain Rain
4:56 PM 57.9 °F 55.0 °F 90% 29.74 in 4.0 mi SSW 9.2 mph - 0.22 in Rain Rain
5:56 PM 57.9 °F 55.0 °F 90% 29.72 in 4.0 mi South 10.4 mph - 0.07 in Rain Rain
6:56 PM 57.0 °F 55.0 °F 93% 29.72 in 8.0 mi South 10.4 mph - 0.09 in Rain Light Rain
7:56 PM 57.0 °F 54.0 °F 89% 29.73 in 6.0 mi SSE 12.7 mph - 0.08 in Rain Light Rain
8:56 PM 57.0 °F 54.0 °F 89% 29.75 in 10.0 mi South 9.2 mph - 0.00 in   Overcast
9:13 PM 57.0 °F 54.0 °F 89% 29.75 in 10.0 mi South 10.4 mph - 0.00 in Rain Light Rain
9:56 PM 57.0 °F 55.0 °F 93% 29.78 in 3.0 mi WSW 6.9 mph - 0.03 in Rain Rain
10:14 PM 55.9 °F 52.0 °F 87% 29.78 in 8.0 mi SW 9.2 mph - 0.02 in Rain Light Rain
10:56 PM 55.0 °F 50.0 °F 83% 29.77 in 9.0 mi SSW 11.5 mph - 0.02 in Rain Light Rain
11:56 PM 55.0 °F 51.1 °F 86% 29.78 in 9.0 mi SW 4.6 mph - 0.00 in Rain Light Rain